Dewpoint
29 23 21 19 22 18 16 16 13 15 15 12 14 12 14 15 27 29 28 26 24 24 24 27 28 27 28 28 33 34 36 37 37 39 37 38 39 41 42 44 46 43 45 48
27 22 22 18 20 17 14 12 16 14 12 11 12 12 17 24 27 28 26 24 23 25 25 24 25 26 27 26 31 33 34 35 37 39 38 39 38 40 41 43 40 42 43 44
22 20 17 17 19 15 12 21 19 12 14 15 12 13 23 25 27 28 25 23 22 22 22 21 21 21 24 24 30 32 35 35 35 36 38 40 39 40 40 40 41 42 42 43
22 19 20 22 16 17 14 18 17 16 14 12 10 7 13 23 25 25 20 16 13 13 15 17 17 18 17 21 24 33 34 35 35 35 38 37 38 38 39 40 40 41 40 41
21 22 22 19 18 20 15 20 16 15 13 10 11 13 15 21 21 17 13 10 11 12 13 15 17 18 21 25 34 35 35 35 37 38 37 39 38 40 40 41 40 39 40 40
22 25 23 20 16 16 20 15 15 16 14 11 3 3 1 15 17 13 9 9 11 13 16 18 20 23 24 27 33 35 37 37 37 38 38 38 38 39 40 39 40 39 39 39
21 21 23 19 15 17 15 14 14 14 14 5 2 4 13 18 18 11 10 9 13 16 18 20 23 26 27 28 30 31 33 36 36 36 37 38 39 40 40 39 38 38 38 38
11 13 19 17 19 16 15 14 14 13 4 2 7 7 15 16 11 12 10 13 17 18 18 20 24 26 27 27 30 31 33 34 35 34 36 38 39 41 40 39 39 39 38 38
17 14 16 21 21 19 16 14 16 13 10 8 8 3 6 10 8 10 10 15 18 21 17 19 21 23 24 23 25 27 28 28 28 30 33 32 32 36 36 36 38 39 38 37
17 13 19 19 19 21 20 14 10 13 10 5 -1 3 3 8 9 9 11 15 17 19 16 17 20 22 22 23 23 24 26 26 26 31 31 30 31 31 33 35 35 36 36 37
18 16 14 10 12 13 12 10 12 12 9 7 5 3 8 7 8 8 17 17 16 16 15 16 18 20 21 22 22 24 25 25 26 27 28 28 31 33 34 34 35 34 35 35
18 15 12 8 15 15 15 13 13 18 13 13 14 10 10 10 16 15 19 18 20 18 18 17 16 18 18 18 20 21 21 22 23 25 26 27 29 31 30 31 33 34 34 35
19 11 11 8 17 17 11 11 11 14 16 12 11 10 12 24 28 29 28 25 22 22 21 18 17 18 17 16 18 19 19 20 21 22 24 26 28 29 31 31 32 32 32 34
26 20 15 14 12 14 12 11 13 11 12 12 12 11 10 23 25 29 29 18 18 22 23 18 19 19 19 18 19 20 21 22 22 22 22 25 27 31 31 31 32 33 34 35
20 16 13 12 11 10 8 5 11 14 12 12 4 6 21 24 20 19 17 17 23 25 21 18 19 20 19 19 22 22 23 23 21 21 21 24 27 31 32 32 34 35 35 36
20 16 14 12 8 7 5 3 0 3 4 4 4 5 25 24 16 12 13 24 28 27 20 19 19 19 20 22 23 24 25 24 21 20 23 25 28 29 31 35 35 36 37 37
19 17 17 8 9 2 1 5 3 3 4 5 6 17 16 14 12 11 13 28 28 20 20 20 19 21 23 24 25 25 25 23 22 24 25 29 32 33 34 35 34 35 35 37
17 18 20 15 4 1 -1 3 5 7 8 10 18 19 17 15 14 14 19 29 20 21 21 20 21 23 23 25 26 25 25 25 26 28 31 32 33 33 34 34 34 35 36 37
18 18 16 10 7 4 3 7 10 11 10 17 17 17 16 18 17 15 17 18 19 21 22 22 22 22 24 24 24 25 26 28 32 34 35 36 36 36 36 35 35 35 36 40
16 17 17 13 4 2 4 11 15 14 8 21 21 19 19 21 18 18 20 21 22 23 24 23 22 24 24 24 27 28 32 36 36 36 37 38 38 38 37 37 36 36 39 42
13 14 11 11 9 7 11 13 21 13 18 28 26 24 23 23 24 23 24 24 24 24 22 23 24 23 25 28 30 38 37 35 38 38 39 40 40 39 39 37 36 39 42 44
10 9 12 14 7 5 13 15 20 26 32 30 27 26 26 27 26 24 24 24 25 22 23 24 24 27 27 31 35 37 38 39 39 40 40 39 40 39 38 37 39 42 46 46
11 14 14 14 11 11 14 19 22 25 25 26 27 27 27 26 24 24 24 23 21 23 23 25 27 28 33 37 39 39 39 39 40 40 39 39 40 39 38 39 42 43 46 45
7 13 15 17 14 16 20 21 23 23 23 26 26 24 24 24 24 23 22 21 23 23 26 28 28 34 37 39 39 39 39 39 39 39 39 39 40 40 41 42 44 46 44 44
10 13 13 12 16 19 22 23 23 22 24 25 24 24 24 25 24 21 23 23 24 26 28 28 34 37 38 38 38 39 39 40 40 40 40 39 40 40 41 45 47 46 47 45
13 13 15 16 20 21 22 22 22 22 23 23 22 23 23 23 22 24 23 25 26 27 28 32 37 38 37 38 38 39 41 42 43 41 40 39 41 41 45 44 45 47 46 46
Lifted_Index
7 6 5 5 5 5 4 3 3 4 5 5 4 4 7 9 9 10 10 11 11 12 12 12 13 13 13 12 12 11 11 10 10 10 9 9 9 9 9 9 8 8 8 7
6 6 6 6 6 5 4 4 4 5 5 5 4 5 7 9 9 10 10 11 11 12 12 12 12 12 11 10 10 9 9 8 8 8 8 8 8 8 8 8 8 8 8 8
6 6 7 6 6 5 5 5 4 4 5 5 4 5 7 8 9 10 10 11 12 12 12 11 10 9 8 7 6 6 6 6 5 6 6 6 6 7 7 7 8 8 8 8
6 7 7 6 6 6 5 6 5 4 4 4 4 5 6 7 8 8 9 10 11 12 11 10 8 7 6 5 4 3 3 3 3 3 4 4 5 5 5 6 6 7 7 7
7 7 7 7 7 7 7 7 6 5 4 4 4 5 5 6 6 7 8 9 10 10 9 8 6 5 4 4 3 2 1 2 2 2 2 3 3 3 4 4 5 6 6 6
8 8 9 8 9 9 9 6 5 4 3 3 4 4 5 6 6 6 7 8 7 7 6 5 4 3 3 2 2 1 1 0 1 1 1 2 2 2 2 3 4 4 5 6
7 8 9 10 9 9 8 6 3 2 2 2 4 5 6 6 5 5 6 6 5 4 4 3 3 2 2 2 1 0 0 -0 -0 0 1 1 1 1 1 2 2 3 4 5
5 6 8 10 10 9 8 6 4 3 2 3 5 6 7 6 5 5 4 4 3 3 3 2 2 2 1 1 1 0 0 0 1 1 2 2 2 2 2 1 1 2 3 4
4 5 8 11 11 10 9 8 7 5 4 4 6 7 7 6 5 4 4 3 2 2 2 2 1 1 1 1 1 1 1 2 2 3 3 3 3 3 2 2 1 2 2 3
7 7 8 10 11 11 11 10 9 8 5 4 5 6 7 6 4 3 3 2 2 2 2 1 1 1 1 1 1 1 2 2 3 4 4 4 4 3 3 2 2 2 3 4
9 8 8 9 10 11 12 11 11 9 7 5 5 6 6 5 3 2 2 1 1 1 1 1 1 1 1 1 1 2 2 3 3 4 5 5 4 4 3 2 2 3 4 4
11 9 7 8 10 11 12 12 12 11 9 8 6 6 5 3 2 1 1 0 0 0 0 1 1 1 1 1 2 2 2 3 3 4 5 5 5 4 3 3 3 4 5 5
12 9 6 6 9 11 12 12 13 12 11 9 7 5 3 2 1 1 1 1 0 0 0 1 1 1 1 2 2 2 2 3 3 4 5 6 5 4 4 4 4 5 6 6
12 10 7 7 9 11 12 13 14 13 11 9 6 4 2 2 2 1 1 1 1 0 1 1 1 1 2 2 2 2 2 3 3 4 6 6 6 5 5 5 5 6 7 7
12 10 9 9 11 12 13 14 14 12 10 8 6 4 3 2 2 2 2 1 1 1 1 1 2 2 2 2 2 2 3 3 4 5 6 7 6 6 5 6 6 7 8 8
12 10 9 9 12 13 13 14 14 11 9 7 6 5 3 3 2 2 2 1 1 1 2 2 2 2 2 2 2 3 3 4 4 5 7 7 7 6 6 7 7 8 8 8
12 10 8 8 10 11 12 14 13 11 8 6 5 4 4 3 3 3 2 1 1 2 2 2 2 2 2 3 3 4 4 5 5 6 7 7 7 7 7 8 8 9 8 7
12 11 9 8 9 10 12 13 12 9 7 5 4 4 3 3 3 3 2 2 2 2 2 2 3 3 3 4 4 5 5 5 6 7 7 7 7 8 8 9 9 8 7 6
14 13 11 9 8 10 11 12 10 8 5 4 3 3 3 3 2 2 2 3 2 2 2 3 3 3 4 5 5 5 5 5 6 7 8 8 8 8 8 9 8 8 7 6
14 14 13 11 9 9 11 10 8 6 4 3 3 3 3 2 2 2 3 3 3 3 3 3 4 4 5 6 6 5 5 6 7 8 8 8 8 8 9 8 7 7 7 7
13 13 12 12 10 9 9 8 6 4 3 3 2 2 2 2 2 3 3 3 3 3 3 4 5 5 6 6 5 5 6 7 8 8 8 8 8 9 9 7 6 6 7 7
11 12 13 12 11 9 8 6 4 3 3 2 2 2 2 2 3 3 3 3 3 3 4 5 5 6 6 5 5 6 6 7 8 8 8 8 9 9 8 6 6 6 6 6
12 13 14 13 11 8 7 5 4 3 3 2 2 2 3 3 3 3 3 3 4 4 5 5 6 6 5 5 6 6 7 8 8 8 8 9 9 8 6 6 6 6 6 6
15 15 14 13 10 8 6 4 4 3 3 2 2 3 3 3 3 3 3 4 4 5 6 6 6 5 5 6 6 7 7 7 8 8 9 9 8 7 6 6 6 7 6 6
15 14 13 11 9 7 5 4 4 3 3 3 3 3 3 3 3 4 4 4 5 6 6 6 6 5 5 5 6 6 7 7 8 8 9 8 7 6 6 6 7 7 6 6
15 14 12 10 8 6 5 4 4 3 3 3 3 3 4 4 4 4 4 5 6 6 6 6 6 5 5 5 6 6 7 7 8 9 9 8 6 6 6 6 7 7 6 6